This demonstration page uses our WeatherBlox Daily Observations layout. Learn more.

Left ArrowRight Arrow

44.89941, -97.11507

Hourly Observations for July 21, 2016

Temp ( °F °C ) Dew Point ( °F °C ) Humidity (%) Winds ( mph kmh ) Pressure ( in mb ) Visibility ( mi km ) Precip ( " mm )
12:53 am 00:53 Clear 81 27.2 76 24.4 85 85 S 9 15 29.82 1010 10 16 0.00 0.00
1:53 am 01:53 Clear 79 26.1 75 23.9 88 88 S 9 15 29.79 1009 10 16 0.00 0.00
2:53 am 02:53 Clear 78 25.6 75 23.9 90 90 SSE 6 9 29.79 1009 10 16 0.00 0.00
3:53 am 03:53 Clear 77 25 75 23.9 94 94 SSE 8 13 29.79 1009 10 16 0.00 0.00
4:23 am 04:23 Partly Cloudy 77 25 75 23.9 94 94 E 13 20 29.77 1008 10 16 0.00 0.00
4:53 am 04:53 Mostly Clear 79 26.1 74 23.3 85 85 ENE 12 19 29.83 1010 10 16 0.00 0.00
5:53 am 05:53 Clear 78 25.6 74 23.3 87 87 S 7 11 29.82 1010 10 16 0.00 0.00
6:53 am 06:53 Sunny 77 25 73 22.8 88 88 E 12 19 29.84 1011 10 16 0.00 0.00
7:14 am 07:14 Mostly Sunny 76 24.4 73 22.8 91 91 ENE 8 13 29.80 1009 10 16 0.00 0.00
7:53 am 07:53 Sunny 77 25 72 22.2 85 85 E 12 19 29.85 1011 10 16 0.00 0.00
8:53 am 08:53 Sunny 80 26.7 72 22.2 76 76 ESE 12 19 29.87 1012 10 16 0.00 0.00
9:53 am 09:53 Sunny 84 28.9 73 22.8 70 70 ENE 10 17 29.88 1012 10 16 0.00 0.00
10:53 am 10:53 Sunny 88 31.1 74 23.3 63 63 E 8 13 29.89 1012 10 16 0.00 0.00
11:53 am 11:53 Sunny 91 32.8 74 23.3 57 57 ENE 13 20 29.89 1012 10 16 0.00 0.00
12:53 pm 12:53 Sunny 93 33.9 74 23.3 54 54 E 10 17 29.88 1012 10 16 0.00 0.00
1:53 pm 13:53 Sunny 94 34.4 73 22.8 51 51 E 10 17 29.88 1012 10 16 0.00 0.00
2:53 pm 14:53 Sunny 94 34.4 72 22.2 49 49 SE 12 19 29.88 1012 10 16 0.00 0.00
3:53 pm 15:53 Sunny 93 33.9 73 22.8 52 52 SE 9 15 29.90 1012 10 16 0.00 0.00
4:53 pm 16:53 Partly Cloudy 93 33.9 76 24.4 58 58 ENE 14 22 29.90 1013 10 16 0.00 0.00
5:21 pm 17:21 Partly Cloudy with Nearby Thunderstorms 91 32.8 76 24.4 61 61 NE 14 22 29.85 1011 10 16 0.00 0.00
5:36 pm 17:36 Partly Cloudy 91 32.8 76 24.4 61 61 ENE 14 22 29.85 1011 10 16 0.00 0.00
5:53 pm 17:53 Mostly Sunny 89 31.7 76 24.4 65 65 ENE 15 24 29.91 1013 10 16 0.00 0.00
6:53 pm 18:53 Sunny 85 29.4 75 23.9 72 72 NE 13 20 29.92 1013 10 16 0.00 0.00
7:53 pm 19:53 Sunny 86 30 76 24.4 72 72 ENE 10 17 29.92 1013 10 16 0.00 0.00
8:53 pm 20:53 Sunny 82 27.8 74 23.3 77 77 ENE 8 13 29.93 1014 10 16 0.00 0.00
9:53 pm 21:53 Clear 79 26.1 74 23.3 85 85 NE 7 11 29.94 1014 10 16 0.00 0.00
11:53 pm 23:53 Clear 77 25 72 22.2 85 85 Calm 29.96 1015 10 16 0.00 0.00

Powered by AerisWeather